Terminal Aerodrome Forecast
Issued by NWS Wichita, KS

Home | Current Version | Previous Version | Text Only | Print | Product List | Glossary On
Versions: 1 2 3 4 5 6 7 8 9 10 11 12 13 14 15 16 17 18 19 20
000
FTUS43 KICT 221120
TAFICT
TAF
KICT 221120Z 2212/2312 16008KT 3SM -DZ BR OVC004
      TEMPO 2212/2214 2SM -DZ BR OVC002
     FM221500 24015KT P6SM VCSH SCT015 BKN070
     FM221800 32018G25KT P6SM SCT030 BKN120
     FM230000 30011KT P6SM SCT120=

USA.gov is the U.S. government's official web portal to all federal, state and local government web resources and services.